Вернуться в каталог

STARLINK-4520

АктивенСвязьVLEO
NORAD 53400·PAYLOAD·🇺🇸 United States

Запущен Aug 10, 2022 с Cape Canaveral Space Force Station

Loading…

Ближайшие Пролёты (ближайшие 24 часа)

TLE

СвежийSource: CelesTrak SupGP

Эпоха: Sep 15, 2026, 02:32 UTC

1 53400C 22097N   26258.10604167  .00050898  00000+0  14564-2 0  2589
2 53400  53.1604 346.9455 0001142  88.3376 183.6657 15.35369104    16

Отслеживайте STARLINK-4520 в реальном времени с AllMySat

Download on the App Store